[[{"header":{"parameterUnit":"m.s-1","parameterCategory":1,"la1":30.2991,"la2":30.254,"lo1":-89.0895,"lo2":-89.0444,"dy":0.0017,"dx":0.0017,"nx":28,"ny":28,"refTime":"2024-04-01T09:00:00:Z","depth":0,"parameterNumber":2,"parameterNumberName":"U-component_of_WINDS"},"data":[0,0,0,0,0,0,0,0,0,0,0,0,0,0,0,0,0,0,0,0,0,0,0,0,0,0,0,0,0,0,0,0,0,0,0,0,0,0,0,0,0,0,0,0,0,0,0,0,0,0,0,0,0,0,0,0,0,0,-2.8299,-2.83,0,-2.8388,-2.8389,-2.839,-2.8412,-2.8411,-2.8411,-2.841,-2.8497,-2.8499,-2.8502,0,0,0,0,0,0,0,0,0,0,0,0,0,-2.8146,-2.8149,-2.8299,-2.83,-2.8302,-2.8388,-2.8389,-2.839,-2.8412,-2.8411,-2.841,-2.841,-2.8496,-2.8499,-2.8502,0,0,0,0,0,0,0,0,0,0,0,0,0,-2.8221,-2.815,-2.8299,-2.8323,-2.8326,-2.8388,-2.8389,-2.8391,-2.8412,-2.8411,-2.841,-2.8409,-2.8495,-2.8499,-2.8503,-2.8547,0,0,-2.8516,-2.8518,0,0,0,0,0,0,0,0,-2.8217,-2.8227,-2.8318,-2.8321,-2.8325,-2.8388,-2.8367,-2.8443,-2.8412,-2.8379,-2.841,-2.8409,-2.8461,-2.8468,-2.8486,-2.8551,-2.8554,-2.8516,-2.8519,-2.8521,-2.8522,0,0,0,0,0,0,0,-2.8212,-2.8223,-2.8334,-2.8319,-2.8323,-2.8328,-2.8338,-2.8381,-2.8424,-2.8382,-2.8384,-2.8394,-2.8463,-2.8482,-2.8489,-2.8556,-2.8516,-2.852,-2.8523,-2.8524,-2.8662,-2.8663,0,0,0,0,0,0,-2.8203,-2.8219,-2.8332,-2.8337,-2.8268,-2.8332,-2.8343,-2.8368,-2.8423,-2.8431,-2.8395,-2.8395,-2.8475,-2.8484,-2.8492,-2.8547,-2.8521,-2.8525,-2.8527,-2.8661,-2.8662,-2.8663,0,0,0,0,0,0,-2.82,-2.8213,-2.8328,-2.8279,-2.8294,-2.8335,-2.8364,-2.8371,-2.839,-2.8433,-2.844,-2.8407,-2.8475,-2.8486,-2.8533,-2.855,-2.8527,-2.8531,-2.8659,-2.8661,-2.8663,-2.8657,0,0,0,0,0,0,-2.8195,-2.8211,-2.8229,-2.8279,-2.8296,-2.8369,-2.8365,-2.8373,-2.8398,-2.8399,-2.8447,-2.8454,-2.8475,-2.8527,-2.8538,-2.8556,-2.8534,-2.8658,-2.866,-2.8662,-2.8656,-2.8658,-2.8661,0,0,0,0,0,-2.819,-2.8222,-2.8229,-2.8243,-2.8319,-2.837,-2.8379,-2.8405,-2.8399,-2.8417,-2.8445,-2.8452,-2.8547,-2.8532,-2.8544,-2.8563,-2.8657,-2.866,-2.8662,-2.8655,-2.8658,-2.866,0,0,0,0,0,0,-2.8171,-2.8229,-2.8238,-2.8288,-2.8324,-2.8373,-2.8396,-2.8407,-2.8444,-2.8443,-2.8472,-2.8482,-2.8528,-2.8551,-2.8532,-2.8609,-2.8602,-2.8607,-2.8592,-2.8596,-2.8598,-2.8591,-2.8537,0,0,0,0,0,-2.8173,-2.8211,-2.8259,-2.8299,-2.8317,-2.8353,-2.8376,-2.8393,-2.8431,-2.8446,-2.8477,-2.8512,-2.855,-2.8574,-2.8612,-2.866,-2.8671,-2.868,-2.8682,-2.8684,-2.8687,-2.8715,-2.872,-2.8671,-2.8671,-2.8671,0,0,-2.8177,-2.8214,-2.8235,-2.8296,-2.8326,-2.8363,-2.8366,-2.8405,-2.8433,-2.8451,-2.8499,-2.8523,-2.8565,-2.8613,-2.8636,-2.8633,-2.8704,-2.8687,-2.8688,-2.869,-2.8718,-2.8723,-2.8727,-2.8673,-2.8673,-2.8672,0,0,-2.8203,-2.8235,-2.8272,-2.8303,-2.8349,-2.8373,-2.8382,-2.8431,-2.8448,-2.8497,-2.8512,-2.8546,-2.861,-2.864,-2.8663,-2.8704,-2.8712,-2.8715,-2.8726,-2.8753,-2.8757,-2.8761,-2.8775,-2.878,-2.8719,-2.8719,-2.8719,0,-2.8202,-2.826,-2.8289,-2.8329,-2.8355,-2.8376,-2.8414,-2.8442,-2.8497,-2.8514,-2.8511,-2.8594,-2.8624,-2.868,-2.869,-2.8709,-2.872,-2.8709,-2.8755,-2.8758,-2.8762,-2.8776,-2.8781,-2.8719,-2.8719,-2.8719,-2.8719,0,-2.8256,-2.8296,-2.832,-2.8375,-2.8405,-2.8443,-2.8478,-2.8504,-2.8519,-2.8544,-2.8594,-2.8631,-2.8676,-2.8691,-2.8705,-2.875,-2.8747,-2.8749,-2.8742,-2.8766,-2.878,-2.8786,-2.8719,-2.8719,-2.8719,-2.8719,0,0,-2.827,-2.8343,-2.8351,-2.8377,-2.8431,-2.8462,-2.8502,-2.8549,-2.8571,-2.8609,-2.8642,-2.8698,-2.8701,-2.8728,-2.8746,-2.877,-2.8801,-2.877,-2.8771,-2.8773,-2.8852,-2.885,-2.8855,-2.8808,-2.8809,-2.881,-2.8849,0,-2.8302,-2.8375,-2.8403,-2.8462,-2.85,-2.8522,-2.8556,-2.8593,-2.8618,-2.8653,-2.8681,-2.872,-2.8721,-2.8738,-2.8763,-2.8792,-2.8817,-2.8789,-2.8838,-2.8839,-2.8825,-2.8863,-2.8859,-2.8894,-2.8854,-2.8855,-2.8856,0,-2.8349,-2.839,-2.8452,-2.8504,-2.8521,-2.8551,-2.8597,-2.8631,-2.8673,-2.869,-2.8721,-2.8739,-2.8781,-2.8773,-2.8832,-2.8812,-2.8835,-2.8852,-2.8854,-2.8858,-2.8848,-2.8867,-2.8906,-2.8911,-2.8865,-2.8864,-2.8863,0,-2.8352,-2.8423,-2.847,-2.8492,-2.8552,-2.8574,-2.86,-2.8642,-2.8668,-2.8708,-2.8726,-2.877,-2.8794,-2.8827,-2.8856,-2.8848,-2.8912,-2.8906,-2.8927,-2.8926,-2.8937,-2.8936,-2.898,-2.8954,-2.8954,-2.8953,-2.8953,0,-2.8385,-2.8422,-2.8473,-2.8501,-2.8544,-2.8578,-2.8619,-2.8646,-2.8684,-2.8718,-2.874,-2.8772,-2.8809,-2.8845,-2.8868,-2.8913,-2.8924,-2.8938,-2.8943,-2.8935,-2.8933,-2.8949,-2.8946,-2.8955,-2.8955,-2.8954,-2.8954,0,-2.8394,-2.843,-2.8483,-2.8538,-2.8552,-2.8581,-2.8628,-2.8656,-2.8684,-2.8727,-2.8739,-2.8782,-2.8826,-2.8859,-2.8915,-2.8931,-2.8979,-2.8985,-2.8965,-2.8967,-2.8985,-2.8983,-2.9039,-2.9048,-2.9017,-2.9017,-2.9017,0,-2.8412,-2.8442,-2.85,-2.8526,-2.8552,-2.8593,-2.8621,-2.8655,-2.8684,-2.8736,-2.8758,-2.8805,-2.8843,-2.8913,-2.8948,-2.8992,-2.8998,-2.9015,-2.9005,-2.8996,-2.8998,-2.8995,-2.8998,-2.9016,-2.9016,-2.9016,-2.9016,0,-2.8439,-2.8456,-2.8497,-2.8544,-2.8578,-2.8616,-2.8655,-2.8674,-2.8716,-2.8747,-2.8793,-2.8823,-2.8883,-2.8928,-2.8976,-2.9002,-2.9016,-2.902,-2.9027,-2.9018,-2.9005,-2.9012,-2.8967,-2.9018,-2.9018,-2.9018,-2.9018,-2.9018,-2.8453,-2.8481,-2.8527,-2.8572,-2.8606,-2.8642,-2.8672,-2.8705,-2.8744,-2.8796,-2.8814,-2.8862,-2.8906,-2.8972,-2.8999,-2.9037,-2.9037,-2.9046,-2.9049,-2.905,-2.905,-2.9001,-2.9046,-2.9046,-2.9046,-2.9046,-2.9046,0,-2.8481,-2.8513,-2.8554,-2.8609,-2.8644,-2.8657,-2.8701,-2.8729,-2.8772,-2.8812,-2.885,-2.8904,-2.8949,-2.899,-2.9036,-2.9059,-2.9066,-2.907,-2.9068,-2.9074,-2.9047,-2.9036,-2.9063,-2.9063,-2.9063,-2.9063,-2.9063,-2.9063,-2.85,-2.8548,-2.8571,-2.8636,-2.8667,-2.8715,-2.874,-2.8774,-2.8806,-2.8866,-2.8904,-2.8931,-2.8971,-2.9021,-2.9063,-2.9074,-2.909,-2.9091,-2.9103,-2.9078,-2.9075,-2.9073,-2.9063,-2.9095,-2.9095,-2.9127,-2.9127,-2.9127]},{"header":{"parameterUnit":"m.s-1","parameterCategory":1,"la1":30.2991,"la2":30.254,"lo1":-89.0895,"lo2":-89.0444,"dy":0.0017,"dx":0.0017,"nx":28,"ny":28,"refTime":"2024-04-01T09:00:00:Z","depth":0,"parameterNumber":3,"parameterNumberName":"V-component_of_WINDS"},"data":[0,0,0,0,0,0,0,0,0,0,0,0,0,0,0,0,0,0,0,0,0,0,0,0,0,0,0,0,0,0,0,0,0,0,0,0,0,0,0,0,0,0,0,0,0,0,0,0,0,0,0,0,0,0,0,0,0,0,4.311,4.3111,0,4.3172,4.3173,4.3173,4.3188,4.3188,4.3187,4.3187,4.3245,4.3247,4.3249,0,0,0,0,0,0,0,0,0,0,0,0,0,4.3001,4.3003,4.311,4.3111,4.3112,4.3172,4.3173,4.3174,4.3188,4.3188,4.3187,4.3187,4.3244,4.3247,4.3249,0,0,0,0,0,0,0,0,0,0,0,0,0,4.3054,4.3003,4.311,4.3126,4.3128,4.3172,4.3173,4.3174,4.3188,4.3188,4.3187,4.3187,4.3244,4.3246,4.3249,4.3279,0,0,4.3258,4.3259,0,0,0,0,0,0,0,0,4.3051,4.3058,4.3123,4.3125,4.3128,4.3172,4.3156,4.3209,4.3189,4.3165,4.3187,4.3186,4.3221,4.3226,4.3238,4.3282,4.3284,4.3258,4.326,4.3261,4.3262,0,0,0,0,0,0,0,4.3047,4.3055,4.3134,4.3124,4.3127,4.3129,4.3136,4.3166,4.3195,4.3167,4.3169,4.3176,4.3222,4.3235,4.324,4.3285,4.3258,4.3261,4.3263,4.3264,4.3359,4.3359,0,0,0,0,0,0,4.3041,4.3052,4.3132,4.3136,4.3087,4.3132,4.314,4.3158,4.3195,4.32,4.3177,4.3177,4.3231,4.3236,4.3242,4.3281,4.3261,4.3264,4.3266,4.3358,4.3359,4.336,0,0,0,0,0,0,4.3039,4.3048,4.313,4.3095,4.3105,4.3134,4.3155,4.316,4.3173,4.3202,4.3207,4.3185,4.3231,4.3238,4.3271,4.3283,4.3265,4.3268,4.3357,4.3358,4.3359,4.3359,0,0,0,0,0,0,4.3036,4.3047,4.3059,4.3095,4.3107,4.3159,4.3156,4.3161,4.3179,4.318,4.3212,4.3216,4.3231,4.3266,4.3274,4.3287,4.327,4.3356,4.3357,4.3359,4.3358,4.336,4.3362,0,0,0,0,0,4.3032,4.3055,4.306,4.307,4.3123,4.3159,4.3166,4.3184,4.318,4.3192,4.3211,4.3215,4.3281,4.327,4.3278,4.3292,4.3355,4.3357,4.3359,4.3357,4.336,4.3362,0,0,0,0,0,0,4.3017,4.306,4.3066,4.3102,4.3127,4.3162,4.3178,4.3185,4.3211,4.321,4.3229,4.3236,4.3269,4.3283,4.327,4.3324,4.3318,4.3321,4.3314,4.3316,4.3318,4.3314,4.3272,0,0,0,0,0,4.3019,4.3046,4.3081,4.3109,4.3122,4.3148,4.3164,4.3176,4.3202,4.3212,4.3234,4.3258,4.3284,4.3301,4.3326,4.336,4.3368,4.3374,4.3376,4.3378,4.3381,4.3402,4.3406,4.3366,4.3366,4.3366,0,0,4.3021,4.3048,4.3063,4.3107,4.3128,4.3156,4.3157,4.3184,4.3205,4.3216,4.325,4.3266,4.3294,4.3329,4.3345,4.3342,4.3394,4.338,4.3381,4.3383,4.3404,4.3408,4.3412,4.3367,4.3367,4.3366,0,0,4.304,4.3063,4.309,4.3112,4.3146,4.3163,4.317,4.3204,4.3216,4.3251,4.3261,4.3284,4.3328,4.3349,4.3366,4.3396,4.3401,4.3403,4.3413,4.3434,4.3437,4.344,4.3453,4.3457,4.3406,4.3406,4.3406,0,4.3038,4.3082,4.3102,4.3132,4.3151,4.3165,4.3193,4.3213,4.3252,4.3265,4.3262,4.332,4.3339,4.338,4.3388,4.34,4.3409,4.34,4.3435,4.3439,4.3442,4.3454,4.3458,4.3406,4.3406,4.3406,4.3406,0,4.3079,4.3109,4.3127,4.3168,4.3189,4.3217,4.3242,4.326,4.3271,4.3289,4.3324,4.3349,4.3381,4.3392,4.34,4.3434,4.3432,4.3432,4.3426,4.3445,4.3458,4.3462,4.3406,4.3406,4.3406,4.3406,0,0,4.3089,4.3144,4.315,4.317,4.3209,4.3232,4.3261,4.3296,4.3312,4.3339,4.3364,4.3403,4.3404,4.3423,4.3434,4.3452,4.3478,4.3451,4.3452,4.3456,4.3519,4.352,4.3525,4.3482,4.3482,4.3483,4.3517,0,4.3114,4.3169,4.319,4.3235,4.3264,4.3279,4.3305,4.3331,4.3349,4.3375,4.3394,4.3422,4.342,4.3432,4.3451,4.3471,4.3491,4.3468,4.3505,4.3507,4.35,4.3531,4.3532,4.3563,4.3522,4.3523,4.3523,0,4.315,4.3181,4.323,4.3269,4.3281,4.3304,4.3339,4.3364,4.3394,4.3406,4.3429,4.344,4.3471,4.3463,4.3507,4.3491,4.3507,4.352,4.3521,4.3526,4.3517,4.3538,4.3573,4.3578,4.353,4.353,4.3529,0,4.3155,4.3209,4.3246,4.3262,4.3307,4.3324,4.3343,4.3373,4.3394,4.3423,4.3437,4.3468,4.3486,4.351,4.3529,4.3521,4.3572,4.3565,4.3583,4.3583,4.3593,4.3593,4.3632,4.3601,4.3601,4.3601,4.3601,0,4.3181,4.3211,4.3249,4.3272,4.3306,4.3329,4.3362,4.3382,4.3409,4.3436,4.345,4.3474,4.3498,4.3526,4.3541,4.3576,4.3583,4.3593,4.3597,4.3593,4.3592,4.3605,4.3604,4.3602,4.3602,4.3602,4.3602,0,4.3192,4.3219,4.3261,4.3302,4.3313,4.3337,4.3371,4.3394,4.3414,4.3447,4.3456,4.3486,4.352,4.3542,4.3583,4.3594,4.3633,4.3635,4.3623,4.3626,4.3643,4.3642,4.3694,4.3702,4.3664,4.3664,4.3665,0,4.3208,4.3232,4.3277,4.3298,4.3318,4.3349,4.3372,4.3396,4.3418,4.3457,4.3475,4.351,4.3539,4.3592,4.3617,4.3649,4.3654,4.367,4.3658,4.3655,4.3656,4.3655,4.3659,4.3671,4.3672,4.3672,4.3672,0,4.3233,4.3247,4.3279,4.3317,4.3343,4.3373,4.3403,4.3419,4.3448,4.3472,4.3509,4.3532,4.3577,4.3612,4.3647,4.3666,4.3674,4.3676,4.3682,4.3679,4.3672,4.3678,4.363,4.3674,4.3674,4.3674,4.3674,4.3674,4.3248,4.3272,4.3308,4.3345,4.3371,4.3399,4.3424,4.3448,4.348,4.352,4.3532,4.357,4.3602,4.3652,4.3671,4.3701,4.3699,4.3708,4.371,4.3712,4.3714,4.3666,4.3707,4.3707,4.3707,4.3707,4.3707,0,4.3276,4.3302,4.3335,4.3379,4.3408,4.3416,4.345,4.3474,4.3508,4.3538,4.3569,4.3611,4.3646,4.3675,4.3711,4.3729,4.3734,4.3738,4.3737,4.3742,4.3712,4.3704,4.3734,4.3734,4.3734,4.3734,4.3734,4.3734,4.3294,4.3335,4.3353,4.3407,4.3432,4.3472,4.3491,4.3518,4.3543,4.3591,4.3621,4.3641,4.3671,4.371,4.3743,4.375,4.3763,4.3767,4.3775,4.3747,4.3744,4.3741,4.3734,4.3769,4.3769,4.3803,4.3804,4.3804]}]]